Flag for Denmark Weather past 2 weeks in Copenhagen, Denmark

Now
63 °F

Broken clouds.


Feels Like: 63 °F
Forecast: 56 / 64 °F
Wind: 13 mph from Southeast

Location: Koebenhavn-Kastrup Airport

Current Time: Aug 30, 2014 at 2:23:06 PM

Latest Report: Aug 30, 2014 at 1:50 PM


Visibility: N/A

Pressure: 29.95 "Hg

Humidity: 88%

Dew point: 59 °F

Location of CopenhagenLocation

Historic Weather in Copenhagen — Graph

°F

Copenhagen temperature yesterday

Maximum temperature yesterday: 66 °F (at 10:50 AM)
Minimum temperature yesterday: 54 °F (at 2:20 AM)
Average temperature yesterday: 61 °F

Past Weeks' High & Low Weather Summary

 TemperatureHumidityPressure
High70 °F (Aug 15, 1:20 PM)100% (Aug 17, 8:50 AM)30.01 "Hg (Aug 17, 8:50 AM)
Low48 °F (Aug 28, 4:50 AM)40% (Aug 27, 4:20 PM)29.36 "Hg (Aug 18, 2:20 PM)
Average59 °F75%29.77 "Hg
* Reported Aug 15 1:20 PM — Aug 30 1:21 PM, Copenhagen, Weather by CustomWeather, © 2014

Note: Actual official high and low records may vary slightly from our data, if they occured in-between our weather recording intervals... More about our weather records

Advertising

Copenhagen weather history for previous 24 hours

 ConditionsComfort  
Time TempWeatherWind HumidityBarometerVisibility
1:21 PM
Aug 30
61 °FLight rain. Broken clouds.12 mph94%29.95 "HgN/A
12:50 PM61 °FRain. Broken clouds.12 mph94%29.95 "Hg4 mi
12:20 PM61 °FLight rain. Broken clouds.9 mph88%29.95 "HgN/A
11:50 AM63 °FDrizzle. Broken clouds.10 mph88%29.95 "HgN/A
11:20 AM63 °FPartly sunny.10 mph88%29.95 "HgN/A
10:50 AM63 °FLight rain. Partly sunny.9 mph88%29.95 "HgN/A
10:20 AM63 °FPartly sunny.9 mph88%29.95 "HgN/A
9:50 AM63 °FPartly sunny.8 mph83%29.95 "HgN/A
9:20 AM63 °FBroken clouds.6 mph88%29.95 "HgN/A
8:50 AM61 °FBroken clouds.5 mph88%29.95 "HgN/A
8:20 AM61 °FBroken clouds.2 mph88%29.95 "HgN/A
7:50 AM59 °FPartly sunny.1 mph94%29.95 "HgN/A
7:20 AM57 °FFog.No wind100%29.92 "Hg5 mi
6:50 AM55 °FFog.2 mph100%29.92 "HgN/A
6:20 AM55 °FPartly cloudy.6 mph100%29.92 "Hg6 mi
5:50 AM55 °FPartly cloudy.5 mph100%29.92 "Hg4 mi
5:20 AM54 °FFog.6 mph100%29.92 "Hg3 mi
4:50 AM54 °FFog.6 mph100%29.92 "Hg4 mi
4:20 AM55 °FPassing clouds.5 mph100%29.92 "HgN/A
3:50 AM57 °FPassing clouds.3 mph94%29.92 "HgN/A
3:20 AM59 °FPartly cloudy.8 mph94%29.92 "HgN/A
2:50 AM59 °FPartly cloudy.9 mph94%29.92 "HgN/A
2:20 AM59 °FPartly cloudy.10 mph88%29.92 "HgN/A
1:50 AM59 °FPartly cloudy.14 mph88%29.92 "HgN/A
1:20 AM59 °FPartly cloudy.13 mph94%29.92 "HgN/A
12:50 AM59 °FPartly cloudy.12 mph94%29.92 "HgN/A
12:20 AM59 °FPartly cloudy.12 mph94%29.92 "HgN/A
11:50 PM
Aug 29
59 °FPassing clouds.12 mph94%29.92 "HgN/A
11:20 PM59 °FPassing clouds.13 mph94%29.92 "HgN/A
9:20 PM61 °FPartly cloudy.9 mph88%29.89 "HgN/A
8:50 PM61 °FDrizzle. Broken clouds.8 mph88%29.89 "Hg3 mi
8:20 PM59 °FLight rain. Broken clouds.7 mph94%29.92 "HgN/A
7:50 PM61 °FLight rain. Partly sunny.9 mph88%29.92 "HgN/A
7:20 PM61 °FLight rain. Broken clouds.8 mph88%29.89 "Hg4 mi
6:50 PM59 °FRain. Partly sunny.7 mph94%29.89 "Hg3 mi
6:20 PM61 °FLight rain. Partly sunny.12 mph88%29.89 "Hg5 mi
5:50 PM61 °FLight rain. Partly sunny.14 mph83%29.92 "HgN/A
5:20 PM61 °FLight rain. Partly sunny.14 mph83%29.92 "HgN/A
4:50 PM61 °FRain. Partly sunny.14 mph88%29.92 "Hg2 mi
4:20 PM64 °FSunny.15 mph78%29.92 "Hg10 mi
3:50 PM66 °FSunny.15 mph68%29.92 "Hg10 mi
3:20 PM66 °FSunny.15 mph73%29.92 "Hg10 mi
2:50 PM66 °FSunny.15 mph73%29.92 "Hg10 mi
2:20 PM64 °FSunny.13 mph73%29.92 "Hg10 mi
Weather by CustomWeather, © 2014

See weather overviewHow to use our weather pages